Location: Palmerston North
(40.3500°S, 175.6170°E)
Time: 14:13:48
(UTC+12:00)

Cosmos 1980 Rocket - Pass Details

Date: 24 January 2019
Orbit: 828 x 851 km, 71.0° (Epoch: 22 April)

Event Time Altitude Azimuth Distance (km) Brightness Sun altitude
Rises 21:00:15 0° 335° (NNW) 3,410 5.3 -3.7°
Reaches altitude 10° 21:02:41 10° 334° (NNW) 2,482 4.6 -4.1°
Maximum altitude 21:08:25 80° 246° (WSW) 876 2.5 -5.0°
Drops below altitude 10° 21:14:12 10° 159° (SSE) 2,504 4.8 -6.0°
Sets 21:16:40 0° 157° (SSE) 3,443 5.5 -6.4°
